Lid_Strength_Index
3 4 4 4 4 4 4 4 3 3 2 1 1 1 1 1 1 0 0 0 0 1 2 2 3 3 4
4 5 5 4 5 5 5 5 4 3 2 1 1 1 1 1 1 1 1 1 1 2 3 3 3 3 4
5 6 6 6 7 7 7 6 5 4 3 2 1 0 0 0 1 1 2 2 3 3 3 3 3 4 5
7 7 7 7 7 8 9 9 9 7 6 4 3 2 1 1 3 4 4 4 3 3 4 5 5 6 7
8 8 9 9 8 8 10 10 10 10 9 10 8 6 5 4 4 5 5 4 5 5 6 6 6 7 8
9 9 8 8 7 8 11 11 11 9 10 11 9 9 7 5 4 5 5 6 6 6 6 7 8 8 8
10 9 9 8 7 8 9 9 10 10 10 12 11 10 9 5 4 6 5 6 6 7 7 8 8 9 9
8 8 6 6 7 7 8 12 12 11 11 13 12 13 10 7 6 6 7 6 7 7 8 8 9 9 10
6 6 5 4 4 8 10 9 12 12 11 12 13 13 12 11 9 7 7 7 8 8 8 9 9 9 11
7 6 6 5 5 6 8 9 13 13 12 13 13 13 14 12 11 10 8 7 8 8 9 10 10 14 15
8 8 8 7 6 6 7 7 10 11 10 11 12 13 13 14 13 11 10 10 12 11 10 10 10 12 15
9 8 8 7 6 7 8 9 9 10 9 10 11 13 14 14 14 13 13 13 14 15 14 12 11 12 12
9 10 10 10 10 11 11 11 11 10 10 11 10 12 12 13 14 15 15 15 15 15 15 16 16 16 16
9 12 12 11 11 11 12 12 13 14 12 11 10 11 13 13 13 15 16 17 15 15 16 16 16 15 15
11 12 12 12 12 11 11 12 14 14 15 14 13 13 13 13 15 16 17 17 16 17 17 18 16 15 15
10 11 12 12 13 12 12 12 14 15 16 15 15 15 15 15 14 17 17 18 18 17 18 20 18 16 15
10 11 12 13 12 13 13 14 15 15 16 15 15 15 18 20 17 14 19 19 18 19 18 19 19 17 16